Location: Gleizolles
(44.4833°N, 6.7667°E)
Time: 03:32:11
(UTC+00:00)

Vanguard 1 Rocket - Pass Details

Date: 26 June 2024
Orbit: 650 x 4219 km, 34.3° (Epoch: 15 July)

Event Time Altitude Azimuth Distance (km) Brightness Sun altitude
Rises 21:21:59 0° 178° (S) 4,264 - -15.6°
Reaches altitude 10° 21:26:25 10° 154° (SSE) 3,867 - -16.0°
Maximum altitude 21:31:21 14° 125° (SE) 4,148 - -16.5°
Exits shadow 21:31:55 14° 122° (ESE) 4,222 10.3 -16.5°
Drops below altitude 10° 21:37:44 10° 98° (E) 5,268 10.9 -17.0°
Sets 21:46:07 0° 80° (E) 7,151 11.8 -17.7°
